Location: Navalmoral
(40.4603°N, 4.7686°W)
Time: 11:02:30
(UTC+00:00)

Cosmos 2263 - Pass Details

Date: 05 August 2024
Orbit: 830 x 865 km, 70.9° (Epoch: 14 September)

Event Time Altitude Azimuth Distance (km) Brightness Sun altitude
Rises 20:28:25 0° 200° (SSW) 3,398 7.2 -10.8°
Reaches altitude 10° 20:30:50 10° 199° (SSW) 2,472 6.5 -11.2°
Maximum altitude 20:36:32 85° 112° (ESE) 866 4.2 -12.1°
Drops below altitude 10° 20:42:19 10° 25° (NNE) 2,508 6.8 -13.0°
Sets 20:44:47 0° 25° (NNE) 3,452 7.5 -13.4°
